VENTE - RECHERCHE - ÉCHANGE - ESSAI - VOLÉ
Tous - Deux roues - Tricycle - Tandem - Vélomobile
Autoconstruction - Assistance électrique - Equipement

Nombre d'annonces: 105
MARQUE MODELE DEPT PRIX DATE PHOTO
8140 VELOMOBILE QUEST 92 4700 26-03-2017
8141 PERFORMER SAKI 69 1000 26-03-2017
8133 VELOMOBILE QUESTXS 78 5500 22-03-2017
8135 AZUB MAX 56 2000 22-03-2017
8129 ZOCKRA HIGH RACER HR700 Etranger 2999 20-03-2017
8130 CRUZBIKE VENDETTA 38 1900 20-03-2017
8131 CATRIKE ROAD 69 2700 20-03-2017
8127 KETTWIESEL MODELE H 11 3000 19-03-2017
8128 OPTIMA HIGHBARON 57 1400 19-03-2017
8126 EQUIPEMENT Solariflex 81 400 18-03-2017
8119 PERFORMER LOW RACER 19 1000 16-03-2017
8120 ICE SPRINT 26 12 2480 16-03-2017
8117 FLEVOBIKE ??? 42 0 15-03-2017
8115 TW BENT ARTIFICE 34 1300 13-03-2017
8108 TROYTEC REVOLUTION HR 85 3000 12-03-2017
8109 M5 CITY-RACER 33 1650 12-03-2017
8111 AUTOCONSTRUCTION Traction directe 11 200 12-03-2017
8112 SCHWALBE Shredda 92 70 12-03-2017
8099 PERFORMER TOSCANA 26/26 25 1500 08-03-2017
8100 CATRIKE TRAIL Etranger 1200 08-03-2017
8098 PERFORMER HIGH RACER Belgique 1100 07-03-2017
8097 MILAN SL MK2 85 6500 07-03-2017
8087 NAZCA GAUCHO 08 1900 06-03-2017
8088 NAZCA PIONEER 13 2900 06-03-2017
8084 ICE SPRINT 2 31 3400 01-03-2017
8083 WAW WAW Suisse 5000 01-03-2017
8078 NAZCA GAUCHO 56 1800 28-02-2017
8079 VELOMOBILE WAW 47 0 28-02-2017
8077 SCHWALBE Marathon XR - 26 29 25 27-02-2017
8073 BACCHETTA GIRO 26 ATT 35 600 24-02-2017
8065 KMX CYCLONE 31 375 23-02-2017
8066 PERFORMER LOW RACER 29 800 23-02-2017
8063 HP VELOTECHNIK SPEEDMACHINE 69 2600 22-02-2017
8064 ICE SPRINT 3FS Belgique 2800 22-02-2017
8059 KENDA Pneus 69 50 21-02-2017
8060 SCHWALBE Marathon winter 69 100 21-02-2017
8061 SHIMANO Pédalier 69 120 21-02-2017
8054 PERFORMER HIGH RACER 29 1100 20-02-2017
8046 M5 TANDEM 74 3200 19-02-2017
8048 WEEHOO iGo Turbo 56 300 19-02-2017
8050 SON XS 56 325 19-02-2017
8044 VELOKRAFT VK3 81 1500 18-02-2017
8033 FAISCEAU ELECTRIQUE WAW 56 1 12-02-2017
8030 AZUB ORIGAMI 67 1500 11-02-2017
8031 07 150 11-02-2017
8032 SIEGE VENTISIT ventisit 07 150 11-02-2017
8025 RADIUS RED PEPPER 13 300 05-02-2017
8018 RADICAL Radical Désign 79 50 01-02-2017
8013 AUTOCONSTRUCTION Trike 74 200 29-01-2017
8012 KINGCYCLE coque avant 21 75 27-01-2017
8010 NUVENCI nuvinci 380 12 320 24-01-2017
8011 FLEVOBIKE GREENMACHINE 21 2750 24-01-2017
8002 CATRIKE ROAD Suisse 1200 21-01-2017
8000 VELOMOBILE QUEST 68 6200 17-01-2017
7998 CHALLENGE FUJIN SL II 93 2500 12-01-2017
7989 NAZCA FIERO 37 1300 10-01-2017
7982 VELOMOBILE STRADA 28 4000 05-01-2017
7983 AZUB TWIN 60 3800 05-01-2017
7973 HP VELOTECHNIK SCORPION FS Suisse 3000 03-01-2017
7978 PERFORMER TISION 25 2000 03-01-2017
7969 SCHWALBE Big Apple 63 25 02-01-2017
7961 OPTIMA STINGER 88 2000 31-12-2016
7957 CRUZBIKE 68 850 28-12-2016
7952 SPARTA ICARUS 65 1000 27-12-2016
7951 62 100 26-12-2016
7946 MOTEUR PéDALIER DéCLIC ECO Moteur Pédalier spécial Vélomobile 16 1000 23-12-2016
7943 CATRIKE SPEED 30 1990 16-12-2016
7896 BAFANG kit 36v 20 450 11-12-2016
7897 RADICAL DESIGN BANANA L 55 200 11-12-2016
7898 ELLIPTIGO Arc 53 1400 11-12-2016
7892 CYCLOSPACE XXL 2.0 74 5000 10-12-2016
7888 VELOMOBILE QUEST 85 4500 08-12-2016
7884 HASE PINO TANDEM Etranger 3200 04-12-2016
7881 CATRIKE MUSASHI 78 799 02-12-2016
7872 HP VELOTECHNIK SCORPION FX 75 2800 28-11-2016
7874 VENTISIT,SCHWALBE Ventisit 17 60 28-11-2016
7871 HP VELOTECHNIK SPEEDMACHINE 93 3950 27-11-2016
7861 WAW WAW Belgique 3900 23-11-2016
7855 AZUB IBEX 77 120 20-11-2016
7856 CRUZBIKE SILVIO 69 2500 20-11-2016
7849 RADICAL DESIGN CYCLONE IV 39 550 16-11-2016
7844 PERFORMER LOW RACER 92 1000 13-11-2016
7840 OPTIMA BARON XLOW 27 1000 11-11-2016
7834 BARCROFT VIRGINIA TITANIUM 73 1450 09-11-2016
7836 AUTOCONSTRUCTION TRIKE 77 100 09-11-2016
7832 SRAM 44 15 08-11-2016
7824 KIT ASSISTANCE éLECTRIQUE 36V ROUE AV KIt Moteuretvélo Porte Bagage 64 550 06-11-2016
7826 OPTIMA BARON 28 800 06-11-2016
7822 COUVRE CHAUSSURE vélo 39 190 15 05-11-2016
7823 ROULANDT 07 0 05-11-2016
7814 PERFORMER TOSCANA 700C 95 1100 01-11-2016
7812 AZUB T-TRIS 67 1700 30-10-2016
7798 DOMYOS Home Trainer Horizontal 31 150 24-10-2016
7801 OPTIMA LYNXX 85 800 24-10-2016
7794 HASE KETTWIESEL ALU 16 4750 22-10-2016
7781 PERFORMER LOW RACER 15 1200 18-10-2016
7769 TRIDENT Terrain 47 2100 16-10-2016
7773 ICE TRICE QNT 74 2000 16-10-2016
7774 WAW Waw 05 5000 16-10-2016
7752 HP VELOTECHNIK GRASSHOPPER FX Suisse 1900 07-10-2016
7748 ORGANIC TRANSIT ELF ELF 2FR Limo 31 6300 04-10-2016
7740 CATRIKE MUSASHI 41 900 03-10-2016
7737 M5 CITY MATE 25 600 02-10-2016
7734 VELOMOBILE QUEST 73 5000 30-09-2016
7733 M5 LOW RACER 73 1200 29-09-2016